Lynchburg, VA

7:34 PM EDT on October 21, 2019 (GMT -0400)
Lynchburg Regional-Glenn

Weather History for KLYH - August, 2019

Change the Weather History Date:

Tuesday, August 6, 2019

  Actual Average Record
Temperature  
Mean Temperature 76 °F 75 °F  
Max Temperature 89 °F 86 °F 105 °F (1918)
Min Temperature 63 °F 64 °F 51 °F (2004)
Degree Days  
Heating Degree Days 0 0  
Month to date heating degree days 0 0  
Since 1 June heating degree days 2 15  
Since 1 July heating degree days 0 1  
Cooling Degree Days 11 10  
Month to date cooling degree days 69 60  
Year to date cooling degree days 924 674  
Since 1 June cooling degree days 712 592  
Growing Degree Days 26 (Base 50)    
Moisture  
Dew Point 66 °F    
Average Humidity 71    
Maximum Humidity 100    
Minimum Humidity 41    
Precipitation  
Precipitation T in 0.11 in 3.30 in (1901)
Month to date precipitation 2.12 0.70  
Year to date precipitation 26.46 25.37  
Snow  
Snow 0.00 in - - ()
Month to date snowfall 0.0  
Since 1 June snowfall 0.0  
Since 1 July snowfall 0.0  
Snow Depth 0.00 in    
Sea Level Pressure  
Sea Level Pressure 29.90 in    
Wind  
Wind Speed 3 mph (WSW)    
Max Wind Speed 10 mph    
Max Gust Speed 14 mph    
Visibility 10 miles    
Events Rain , Thunderstorm    
T = Trace of Precipitation, MM = Missing Value Source: NWS Daily Summary

Daily Weather History Graph

Daily Weather History Graph

Search for Another Location

Airport or City:

Astronomy

Aug. 06, 2019 Rise Set
Actual Time 6:25 AM EDT 8:19 PM EDT
Civil Twilight 5:56 AM EDT 8:47 PM EDT
Nautical Twilight 5:22 AM EDT 9:22 PM EDT
Astronomical Twilight 4:45 AM EDT 9:59 PM EDT
Moon 12:40 PM EDT (8/6) No Moon Set
Length of Visible Light 14h 51m
Length of Day
13h 54m
Waxing Crescent, 38% of the Moon is Illuminated
Aug 6
Waxing Crescent
Aug 7
First Quarter
Aug 15
Full
Aug 23
Last Quarter
Aug 30
New

Hourly Weather History & Observations

Time (EDT) Temp. Heat Index Dew Point Humidity Pressure Visibility Wind Dir Wind Speed Gust Speed Precip Events Conditions
12:35 AM 68.0 °F - 64.9 °F 90% 29.97 in 10.0 mi Calm Calm - N/A Thunderstorm Clear
12:50 AM 68.0 °F - 64.4 °F 88% 29.97 in 10.0 mi West 3.5 mph - N/A   Partly Cloudy
12:54 AM 68.0 °F - 64.0 °F 87% 29.94 in 10.0 mi Calm Calm - N/A   Partly Cloudy
1:54 AM 70.0 °F - 64.0 °F 81% 29.95 in 10.0 mi Variable 3.5 mph - N/A   Mostly Cloudy
2:22 AM 71.1 °F - 66.0 °F 84% 29.97 in 10.0 mi Calm Calm - N/A   Mostly Cloudy
2:33 AM 71.1 °F - 66.9 °F 87% 29.97 in 10.0 mi Calm Calm - N/A Thunderstorm Mostly Cloudy
2:46 AM 71.1 °F - 66.9 °F 87% 29.97 in 10.0 mi WNW 3.5 mph - N/A   Mostly Cloudy
2:54 AM 70.0 °F - 66.0 °F 87% 29.95 in 10.0 mi West 6.9 mph - N/A   Mostly Cloudy
2:57 AM 70.0 °F - 66.0 °F 87% 29.97 in 10.0 mi West 4.6 mph - N/A   Mostly Cloudy
3:04 AM 70.0 °F - 66.0 °F 87% 29.97 in 10.0 mi Calm Calm - N/A Thunderstorm Mostly Cloudy
3:19 AM 69.1 °F - 64.9 °F 87% 29.96 in 10.0 mi Calm Calm - 0.00 in Rain Light Rain
3:54 AM 68.0 °F - 64.9 °F 90% 29.93 in 10.0 mi Calm Calm - 0.00 in   Clear
4:54 AM 64.9 °F - 64.0 °F 97% 29.91 in 10.0 mi Calm Calm - N/A   Clear
5:54 AM 64.0 °F - 63.0 °F 96% 29.91 in 10.0 mi Calm Calm - N/A   Clear
6:54 AM 64.9 °F - 63.0 °F 93% 29.91 in 10.0 mi Calm Calm - N/A   Clear
7:54 AM 69.1 °F - 66.0 °F 90% 29.91 in 10.0 mi Calm Calm - N/A   Clear
8:54 AM 73.9 °F - 66.0 °F 76% 29.93 in 10.0 mi WSW 4.6 mph - N/A   Clear
9:54 AM 79.0 °F - 66.9 °F 66% 29.92 in 10.0 mi Calm Calm - N/A   Clear
10:54 AM 82.0 °F 84.9 °F 68.0 °F 62% 29.91 in 10.0 mi WNW 3.5 mph - N/A   Clear
11:54 AM 84.0 °F 87.8 °F 69.1 °F 61% 29.91 in 10.0 mi SSW 5.8 mph - N/A   Clear
12:54 PM 86.0 °F 89.4 °F 68.0 °F 55% 29.90 in 10.0 mi South 8.1 mph - N/A   Scattered Clouds
1:54 PM 88.0 °F 90.3 °F 66.0 °F 48% 29.88 in 10.0 mi WSW 5.8 mph - N/A   Partly Cloudy
2:54 PM 88.0 °F 90.3 °F 66.0 °F 48% 29.86 in 10.0 mi Calm Calm - N/A   Partly Cloudy
3:54 PM 88.0 °F 89.3 °F 64.0 °F 45% 29.84 in 10.0 mi Variable 6.9 mph - N/A   Clear
4:54 PM 89.1 °F 90.0 °F 63.0 °F 42% 29.83 in 10.0 mi SW 5.8 mph - N/A   Clear
5:54 PM 87.1 °F 87.8 °F 63.0 °F 44% 29.84 in 10.0 mi SW 4.6 mph - N/A   Clear
6:54 PM 81.0 °F 84.1 °F 69.1 °F 67% 29.84 in 10.0 mi Calm Calm - N/A   Clear
7:54 PM 81.0 °F 83.8 °F 68.0 °F 65% 29.84 in 10.0 mi SSW 4.6 mph - N/A   Clear
8:54 PM 75.9 °F - 68.0 °F 76% 29.84 in 10.0 mi Calm Calm - N/A   Clear
9:54 PM 73.9 °F - 66.9 °F 79% 29.86 in 10.0 mi Calm Calm - N/A   Clear
10:54 PM 75.0 °F - 68.0 °F 79% 29.86 in 10.0 mi SSW 4.6 mph - N/A   Clear
11:54 PM 73.0 °F - 68.0 °F 84% 29.85 in 10.0 mi SW 4.6 mph - N/A   Clear